| time (UTC) | temp C | wind direction | speed KPH | gust KPH | rain 1hr cm | rain 24hr cm | rain mn cm | humidity % | barometer mb |
| 20260509071545 | 12 | 0 | 0.0 | 3.2 | 0.00 | 0.00 | 0.00 | 68 | 1013.7 |
| 20260509070049 | 13 | 0 | 0.0 | 1.6 | 0.00 | 0.00 | 0.00 | 66 | 1013.8 |
| 20260509064547 | 14 | 0 | 0.0 | 3.2 | 0.00 | 0.00 | 0.00 | 63 | 1013.9 |
| 20260509063055 | 14 | 0 | 0.0 | 4.8 | 0.00 | 0.00 | 0.00 | 61 | 1013.9 |
| 20260509061558 | 14 | 0 | 0.0 | 6.4 | 0.00 | 0.00 | 0.00 | 61 | 1014.4 |
| 20260509060054 | 14 | 0 | 0.0 | 4.8 | 0.00 | 0.00 | 0.00 | 61 | 1014.5 |
| 20260509054558 | 14 | 0 | 0.0 | 3.2 | 0.00 | 0.03 | 0.00 | 61 | 1014.7 |
| 20260509053101 | 14 | 0 | 0.0 | 3.2 | 0.00 | 0.03 | 0.00 | 59 | 1014.9 |
| 20260509051557 | 15 | 0 | 0.0 | 1.6 | 0.00 | 0.03 | 0.00 | 59 | 1015.3 |
| 20260509050050 | 15 | 0 | 0.0 | 3.2 | 0.00 | 0.03 | 0.00 | 59 | 1015.4 |
| 20260509044548 | 15 | 0 | 0.0 | 8.0 | 0.00 | 0.03 | 0.00 | 55 | 1015.5 |
| 20260509043046 | 15 | 0 | 1.6 | 8.0 | 0.00 | 0.03 | 0.00 | 54 | 1015.4 |
| 20260509041546 | 15 | 0 | 1.6 | 8.0 | 0.00 | 0.03 | 0.00 | 53 | 1015.4 |
| 20260509040052 | 14 | 0 | 0.0 | 1.6 | 0.00 | 0.03 | 0.00 | 55 | 1015.3 |
| 20260509034546 | 14 | 0 | 0.0 | 1.6 | 0.00 | 0.03 | 0.03 | 56 | 1015.4 |
| 20260509033059 | 14 | 0 | 0.0 | 1.6 | 0.00 | 0.03 | 0.03 | 57 | 1015.4 |
| 20260509031552 | 14 | 0 | 0.0 | 1.6 | 0.00 | 0.03 | 0.03 | 58 | 1015.4 |
| 20260509030041 | 15 | 0 | 0.0 | 0.0 | 0.00 | 0.03 | 0.03 | 59 | 1015.6 |
| 20260509024544 | 15 | 0 | 0.0 | 1.6 | 0.00 | 0.03 | 0.03 | 56 | 1015.7 |
| 20260509023047 | 15 | 0 | 0.0 | 1.6 | 0.00 | 0.03 | 0.03 | 54 | 1015.8 |
| 20260509021547 | 15 | 0 | 0.0 | 0.0 | 0.00 | 0.03 | 0.03 | 54 | 1015.8 |
| 20260509020046 | 15 | 0 | 0.0 | 1.6 | 0.00 | 0.03 | 0.03 | 55 | 1015.9 |
| 20260509014548 | 15 | 0 | 0.0 | 1.6 | 0.00 | 0.03 | 0.03 | 55 | 1015.8 |
| 20260509013053 | 15 | 0 | 0.0 | 0.0 | 0.00 | 0.03 | 0.03 | 52 | 1015.7 |
| 20260509011549 | 16 | 0 | 0.0 | 0.0 | 0.00 | 0.03 | 0.03 | 53 | 1015.5 |
| 20260509010050 | 16 | 0 | 0.0 | 1.6 | 0.00 | 0.03 | 0.03 | 48 | 1015.5 |
| 20260509004540 | 16 | 0 | 0.0 | 1.6 | 0.00 | 0.03 | 0.03 | 47 | 1015.5 |
| 20260509003046 | 17 | 0 | 0.0 | 1.6 | 0.00 | 0.03 | 0.03 | 45 | 1015.5 |
| 20260509001545 | 17 | 0 | 0.0 | 1.6 | 0.00 | 0.03 | 0.03 | 43 | 1014.8 |
| 20260509000049 | 18 | 0 | 0.0 | 1.6 | 0.00 | 0.03 | 0.03 | 43 | 1015.0 |
| 20260508234543 | 18 | 0 | 0.0 | 1.6 | 0.00 | 0.03 | 0.03 | 41 | 1015.1 |
| 20260508233101 | 18 | 0 | 0.0 | 3.2 | 0.00 | 0.03 | 0.03 | 38 | 1015.2 |
| 20260508231552 | 18 | 0 | 0.0 | 8.0 | 0.00 | 0.03 | 0.03 | 37 | 1015.3 |
| 20260508230058 | 18 | 0 | 1.6 | 8.0 | 0.00 | 0.03 | 0.03 | 36 | 1015.0 |
| 20260508224605 | 19 | 0 | 0.0 | 8.0 | 0.00 | 0.03 | 0.03 | 36 | 1015.0 |
| 20260508223047 | 19 | 271 | 0.0 | 3.2 | 0.00 | 0.03 | 0.03 | 37 | 1015.0 |
| 20260508221549 | 19 | 244 | 1.6 | 8.0 | 0.00 | 0.03 | 0.03 | 35 | 1014.9 |
| 20260508220055 | 20 | 0 | 0.0 | 17.7 | 0.00 | 0.03 | 0.03 | 37 | 1014.6 |
| 20260508214551 | 20 | 265 | 1.6 | 8.0 | 0.00 | 0.03 | 0.03 | 35 | 1014.8 |
| 20260508213049 | 21 | 294 | 1.6 | 12.9 | 0.00 | 0.03 | 0.03 | 32 | 1015.0 |
| 20260508211554 | 20 | 147 | 3.2 | 8.0 | 0.00 | 0.03 | 0.03 | 31 | 1014.7 |
| 20260508210050 | 20 | 221 | 0.0 | 12.9 | 0.00 | 0.03 | 0.03 | 35 | 1014.9 |
| 20260508204551 | 20 | 0 | 1.6 | 12.9 | 0.00 | 0.33 | 0.03 | 33 | 1015.1 |
| 20260508203055 | 20 | 0 | 3.2 | 16.1 | 0.00 | 0.33 | 0.03 | 33 | 1015.6 |
| 20260508201549 | 20 | 186 | 4.8 | 14.5 | 0.00 | 0.33 | 0.03 | 33 | 1015.7 |
| 20260508200103 | 20 | 173 | 3.2 | 16.1 | 0.00 | 0.33 | 0.03 | 33 | 1015.7 |
| 20260508194539 | 21 | 333 | 3.2 | 11.3 | 0.00 | 0.46 | 0.03 | 33 | 1015.7 |
| 20260508193048 | 20 | 0 | 3.2 | 11.3 | 0.00 | 0.46 | 0.03 | 31 | 1016.0 |
| 20260508191552 | 21 | 275 | 0.0 | 9.7 | 0.00 | 0.46 | 0.03 | 32 | 1016.2 |
| 20260508190045 | 20 | 123 | 3.2 | 17.7 | 0.00 | 0.46 | 0.03 | 31 | 1016.3 |
| 20260508184553 | 20 | 150 | 6.4 | 14.5 | 0.00 | 0.46 | 0.03 | 32 | 1016.6 |
| 20260508183050 | 21 | 240 | 1.6 | 6.4 | 0.00 | 0.46 | 0.03 | 34 | 1016.6 |
| 20260508181551 | 19 | 111 | 1.6 | 14.5 | 0.00 | 0.46 | 0.03 | 32 | 1016.8 |
| 20260508180049 | 20 | 121 | 3.2 | 11.3 | 0.00 | 0.46 | 0.03 | 31 | 1017.0 |
| 20260508174603 | 21 | 0 | 0.0 | 3.2 | 0.00 | 0.46 | 0.03 | 31 | 1017.2 |
| 20260508173048 | 20 | 0 | 0.0 | 4.8 | 0.00 | 0.46 | 0.03 | 33 | 1017.5 |
| 20260508171551 | 18 | 0 | 1.6 | 8.0 | 0.00 | 0.46 | 0.03 | 31 | 1017.6 |
| 20260508170055 | 19 | 112 | 0.0 | 4.8 | 0.00 | 0.46 | 0.03 | 35 | 1017.6 |
| 20260508164549 | 18 | 263 | 0.0 | 4.8 | 0.00 | 0.46 | 0.03 | 37 | 1017.9 |
| 20260508163047 | 18 | 0 | 1.6 | 4.8 | 0.00 | 0.46 | 0.03 | 35 | 1018.3 |
| 20260508161549 | 18 | 170 | 0.0 | 3.2 | 0.00 | 0.46 | 0.03 | 34 | 1018.5 |
| 20260508160052 | 18 | 0 | 1.6 | 9.7 | 0.00 | 0.46 | 0.03 | 41 | 1018.6 |
| 20260508154552 | 18 | 101 | 0.0 | 6.4 | 0.00 | 0.46 | 0.03 | 36 | 1018.8 |
| 20260508153046 | 17 | 296 | 1.6 | 4.8 | 0.00 | 0.46 | 0.03 | 41 | 1019.0 |
| 20260508151557 | 17 | 0 | 1.6 | 4.8 | 0.00 | 0.46 | 0.03 | 41 | 1019.1 |
| 20260508150050 | 16 | 0 | 0.0 | 11.3 | 0.00 | 0.46 | 0.03 | 40 | 1019.1 |
| 20260508144551 | 16 | 96 | 0.0 | 3.2 | 0.00 | 0.51 | 0.03 | 44 | 1018.9 |
| 20260508143055 | 16 | 261 | 1.6 | 3.2 | 0.00 | 0.51 | 0.03 | 46 | 1018.9 |
| 20260508141551 | 16 | 0 | 0.0 | 3.2 | 0.00 | 0.51 | 0.03 | 47 | 1018.9 |
| 20260508140056 | 16 | 0 | 0.0 | 3.2 | 0.00 | 0.51 | 0.03 | 47 | 1018.8 |
| 20260508134553 | 15 | 0 | 0.0 | 3.2 | 0.00 | 0.69 | 0.03 | 51 | 1018.7 |
| 20260508133055 | 14 | 0 | 0.0 | 1.6 | 0.00 | 0.69 | 0.03 | 63 | 1018.6 |
| 20260508131550 | 13 | 0 | 0.0 | 1.6 | 0.00 | 0.69 | 0.03 | 72 | 1018.4 |
| 20260508130100 | 12 | 0 | 0.0 | 1.6 | 0.00 | 0.69 | 0.03 | 82 | 1018.4 |
| 20260508124553 | 11 | 0 | 0.0 | 1.6 | 0.00 | 0.89 | 0.03 | 81 | 1018.4 |
| 20260508123057 | 10 | 0 | 0.0 | 1.6 | 0.00 | 0.89 | 0.03 | 90 | 1018.3 |
| 20260508121544 | 8 | 0 | 0.0 | 1.6 | 0.00 | 0.89 | 0.03 | 94 | 1018.2 |
| 20260508120049 | 7 | 0 | 0.0 | 1.6 | 0.00 | 0.89 | 0.03 | 94 | 1017.9 |
| 20260508114548 | 7 | 0 | 0.0 | 0.0 | 0.00 | 0.91 | 0.03 | 95 | 1017.8 |
| 20260508113043 | 7 | 0 | 0.0 | 1.6 | 0.00 | 0.91 | 0.03 | 95 | 1017.8 |
| 20260508111544 | 6 | 0 | 0.0 | 0.0 | 0.00 | 0.91 | 0.03 | 94 | 1017.6 |
| 20260508110048 | 6 | 0 | 0.0 | 0.0 | 0.00 | 0.91 | 0.03 | 94 | 1017.3 |
| 20260508104558 | 6 | 0 | 0.0 | 1.6 | 0.00 | 0.94 | 0.03 | 94 | 1017.1 |
| 20260508103051 | 6 | 0 | 0.0 | 1.6 | 0.00 | 0.94 | 0.03 | 94 | 1017.0 |
| 20260508101547 | 6 | 0 | 0.0 | 0.0 | 0.00 | 0.94 | 0.03 | 94 | 1016.8 |
| 20260508100051 | 6 | 0 | 0.0 | 1.6 | 0.00 | 0.94 | 0.03 | 94 | 1016.6 |
| 20260508094550 | 6 | 0 | 0.0 | 0.0 | 0.00 | 0.97 | 0.03 | 94 | 1016.1 |
| 20260508093045 | 6 | 0 | 0.0 | 1.6 | 0.00 | 0.97 | 0.03 | 94 | 1016.3 |
| 20260508091558 | 7 | 0 | 0.0 | 1.6 | 0.00 | 0.97 | 0.03 | 94 | 1016.2 |
| 20260508084552 | 7 | 0 | 0.0 | 1.6 | 0.00 | 0.97 | 0.03 | 94 | 1015.9 |
| 20260508083049 | 7 | 0 | 0.0 | 0.0 | 0.00 | 0.97 | 0.03 | 94 | 1015.7 |
| 20260508081552 | 7 | 0 | 0.0 | 0.0 | 0.00 | 0.97 | 0.03 | 94 | 1015.7 |
| 20260508074548 | 7 | 0 | 0.0 | 0.0 | 0.00 | 0.99 | 0.03 | 94 | 1015.6 |
| 20260508073059 | 7 | 0 | 0.0 | 0.0 | 0.00 | 0.99 | 0.03 | 94 | 1015.4 |